Location: Cambroso
(45.2833°N, 12.0850°E)
Time: 11:08:22
(UTC+00:00)

Aureole 3 - Pass Details

Date: 21 January 2021
Orbit: 381 x 1231 km, 82.5° (Epoch: 28 February)

Event Time Altitude Azimuth Distance (km) Brightness Sun altitude
Rises 16:45:57 0° 5° (N) 2,635 6.5 -7.6°
Reaches altitude 10° 16:48:49 10° 27° (NNE) 1,615 5.3 -8.1°
Maximum altitude 16:51:05 16° 68° (ENE) 1,197 4.4 -8.5°
Drops below altitude 10° 16:53:09 10° 110° (ESE) 1,464 5.0 -8.8°
Sets 16:55:34 0° 133° (SE) 2,268 6.2 -9.2°
